sat.trackr.live / text

‹ back to catalog

TRANSPORTER-14 OBJECT AE

NORAD 64556 · 2025-135AE

PAYLOAD ACTIVE UNKNOWN

§ Identity

Operator
Country
TBD
Launch date
2025-06-23
Launch site
AFWTR
Launch vehicle
Mass (kg)
RCS (m²)

External: N2YO · Heavens-Above · Gunter

§ Orbital elements

Epoch: 2026-05-24T13:45:33.607296Z

Period
94.40 min
Inclination
97.4715°
Eccentricity
0.0002898
Mean motion
15.25377361 rev/d
Perigee alt
487.7 km
Apogee alt
491.6 km
Semi-major
6,867.8 km
B*
2.8771e-4
RAAN
261.2159°
Arg perigee
124.4487°
Mean anomaly
235.7026°
Rev number
5,134

§ Raw data

TRANSPORTER-14 OBJECT AE1 64556U 25135AE  26144.57330564  .00007189  00000+0  28771-3 0  99942 64556  97.4715 261.2159 0002898 124.4487 235.7026 15.25377361 51342

JSON: /api/v1/satellites/64556 · /tle

For live sub-satellite position, see the globe view (requires WebGL).

§ Visibility from observer

Set your observer location to see the next 7 days of passes ≥ 10°. The values pass through the URL so the page stays shareable.

No JS? Fill the form by hand. The geolocation button needs JavaScript.